Temperature
18 18 18 18 18 18 18 18 18 18 18 18 18 18 18 18 18 18 18 18 18 18 18 18 17 17 17 17 17 17 17 17 16 16 16 16 16 16 16 16 16 16 16
18 18 18 18 18 18 18 18 18 18 18 18 18 18 18 18 18 18 18 18 18 18 18 18 18 17 17 17 17 17 17 17 16 16 16 16 16 16 16 16 16 16 16
18 18 18 18 18 18 18 18 18 18 18 18 18 18 18 18 18 18 18 18 18 18 18 18 18 17 17 17 17 17 17 17 17 16 16 16 16 16 16 16 16 16 16
18 18 18 18 18 18 18 18 18 18 18 18 18 18 18 18 18 18 18 17 17 18 18 18 18 18 17 17 17 17 17 17 17 16 16 16 16 16 16 16 16 16 16
18 18 18 18 18 18 18 18 18 18 18 18 18 18 18 18 18 18 18 18 17 17 18 18 18 18 17 17 17 17 17 17 17 16 16 16 16 16 16 16 16 16 16
18 18 18 18 18 18 18 18 18 18 18 18 18 18 18 18 18 18 18 18 18 17 17 17 17 17 17 17 17 17 17 17 17 16 16 16 16 16 16 16 16 16 16
18 18 18 18 18 18 18 18 18 18 18 18 18 18 18 18 18 18 18 18 18 18 18 17 17 17 17 17 17 17 17 17 17 16 16 16 16 16 16 16 16 15 15
18 18 18 18 18 18 18 18 18 18 18 18 18 18 18 18 19 19 18 18 18 18 18 18 17 17 17 17 17 17 17 17 17 16 16 16 16 16 16 16 15 15 15
18 18 18 18 18 18 18 18 18 18 18 18 18 18 18 18 18 19 18 18 18 18 18 18 18 17 17 17 17 17 17 17 16 16 16 16 16 16 16 15 15 15 15
18 18 18 18 18 18 18 18 18 18 18 18 18 18 18 18 18 18 18 18 18 18 18 18 17 17 17 17 17 17 17 17 16 16 16 16 16 16 15 15 15 15 15
18 18 18 18 18 18 18 18 18 18 18 18 18 18 18 18 18 18 18 18 18 18 18 17 17 17 17 17 17 17 17 16 16 16 16 16 16 15 15 15 15 15 15
18 18 18 18 18 18 18 18 18 18 18 18 18 18 18 18 18 18 18 18 18 18 17 17 17 17 17 16 16 16 16 16 16 16 16 15 15 15 15 15 15 14 14
18 18 18 18 18 18 18 18 17 18 18 18 18 18 18 18 18 18 18 17 17 17 17 17 17 16 16 16 16 16 16 16 15 15 15 15 15 15 14 14 14 14 14
18 18 18 18 18 18 17 17 17 17 17 17 17 17 17 17 17 17 17 17 17 17 16 16 16 16 16 16 16 15 15 15 15 15 15 14 14 14 14 14 14 14 13
18 18 18 18 17 17 17 17 17 17 17 17 17 17 17 17 17 17 17 17 17 16 16 16 16 16 15 15 15 15 15 15 14 14 14 14 14 14 13 13 13 13 13
18 18 17 17 17 17 17 17 17 17 17 17 17 17 17 17 17 17 17 17 17 17 16 16 15 15 15 15 15 14 14 14 14 14 13 13 13 13 13 13 13 12 12
17 17 17 17 17 17 17 17 17 16 16 16 16 16 16 16 16 16 16 17 16 16 16 15 15 15 15 14 14 14 13 13 13 13 13 13 13 13 12 12 12 12 12
17 17 17 17 17 17 17 16 16 16 16 16 16 16 16 16 16 16 16 16 16 16 15 15 15 14 14 14 13 13 13 13 13 12 12 12 12 12 12 12 11 11 11
17 17 17 17 17 16 16 16 16 16 16 16 16 16 16 16 16 16 16 15 15 15 15 15 14 14 14 13 13 13 12 12 12 12 12 12 12 12 11 11 11 11 11
17 17 17 16 16 16 16 16 16 16 16 16 16 15 15 15 15 15 15 15 15 15 14 14 14 13 13 13 13 12 12 12 11 11 11 11 11 11 11 11 10 10 10
16 16 16 16 16 16 16 15 15 15 15 15 15 15 15 15 15 15 15 15 14 14 14 14 13 13 13 13 12 12 12 11 11 11 11 10 10 10 10 10 10 10 10
16 16 16 16 16 15 15 15 15 15 15 15 15 15 15 15 14 14 14 14 14 14 13 13 13 13 13 13 12 12 12 11 11 11 10 10 10 10 10 10 9 9 9
16 16 16 16 16 15 15 15 15 15 14 14 14 14 14 14 14 14 14 14 14 13 13 13 13 13 12 12 12 12 12 11 11 11 10 10 10 10 9 9 9 9 9
16 16 15 15 15 15 15 15 15 14 14 14 14 14 14 13 13 13 13 13 13 13 13 13 12 12 12 12 12 12 11 11 11 10 10 10 10 10 9 9 9 9 8
15 15 15 15 15 15 15 14 14 14 14 14 14 13 13 13 13 13 12 12 12 12 12 12 12 12 12 12 11 11 11 11 10 10 10 10 10 9 9 9 9 8 8
15 14 14 14 14 14 14 14 14 13 13 13 13 13 13 13 13 12 12 12 12 11 11 11 11 11 11 11 11 11 11 11 10 10 10 10 9 9 9 9 9 8 8
Wind_Speed
3 4 3 3 5 7 6 3 2 3 1 2 2 2 2 4 6 11 11 13 13 12 11 11 11 11 10 10 9 9 9 8 8 8 7 7 7 7 6 6 6 6 5
3 2 2 2 2 3 4 3 2 2 1 1 1 2 2 3 5 8 12 12 13 13 12 12 12 11 11 11 10 10 10 9 9 9 9 8 7 7 7 7 7 7 6
4 3 2 2 2 3 3 2 2 2 3 3 2 2 2 3 5 6 10 12 12 13 13 13 13 13 12 12 11 11 11 11 10 10 10 9 9 8 8 8 8 8 8
5 3 2 2 3 3 3 2 2 2 2 1 2 2 2 3 4 6 7 11 12 12 14 15 15 15 14 13 13 13 12 12 12 12 11 11 11 10 10 10 10 9 10
5 4 1 2 3 3 2 3 2 2 2 2 2 3 3 3 4 6 6 8 10 12 13 16 17 16 16 15 15 14 14 13 13 13 13 13 12 12 12 11 11 11 11
5 3 3 3 3 2 2 1 1 1 1 2 4 2 3 4 4 4 5 7 9 11 13 14 15 15 17 16 16 15 15 14 14 14 14 14 13 13 13 13 12 12 12
4 3 1 2 2 2 2 2 1 2 3 3 2 1 2 4 5 4 4 3 5 8 10 13 13 12 12 17 16 16 15 14 14 14 14 14 14 14 14 14 13 13 13
5 5 3 3 2 1 2 2 1 1 3 3 1 1 1 2 2 5 4 4 4 5 5 9 10 10 10 10 12 14 14 13 13 13 14 14 14 14 14 14 14 14 14
5 3 4 3 2 3 3 3 3 3 3 3 2 1 1 2 1 1 2 2 1 2 1 3 6 9 10 8 9 13 14 13 12 11 11 11 12 13 14 14 14 14 13
4 5 4 4 3 2 2 4 4 3 3 3 2 2 2 1 1 1 1 1 2 2 2 2 2 4 7 7 7 8 11 11 11 10 9 9 10 11 12 12 11 10 11
4 5 5 3 3 3 3 3 2 3 2 3 2 2 2 2 3 3 2 1 1 1 1 1 1 3 4 5 6 6 8 9 8 7 6 5 5 5 6 6 6 6 7
3 4 4 3 4 3 3 3 2 3 2 2 2 2 2 2 2 3 3 3 2 1 1 1 1 2 3 4 5 6 7 8 7 6 5 5 4 4 3 3 2 3 3
2 2 2 2 3 3 3 2 2 2 3 3 3 3 3 2 2 2 2 3 2 1 1 1 1 3 4 5 6 7 8 9 8 8 7 6 5 5 4 3 2 2 1
1 1 1 2 3 3 3 2 2 3 2 3 3 2 2 2 2 2 2 2 2 1 0 1 2 3 5 6 8 9 8 9 10 9 8 7 7 6 6 6 5 4 4
1 0 1 2 2 2 2 1 1 2 1 1 2 2 2 3 2 2 2 2 2 2 1 1 1 2 5 6 8 9 9 10 11 10 9 8 8 8 7 6 6 5 5
2 1 1 1 1 0 1 1 1 0 1 0 1 1 2 2 2 2 1 1 2 2 2 1 1 2 4 5 9 9 10 11 10 10 9 9 9 8 7 6 6 6 5
1 1 1 1 1 1 1 0 0 0 0 0 1 1 1 1 2 2 1 1 1 1 2 1 1 2 3 5 7 9 10 9 9 10 10 9 9 8 8 7 6 6 6
0 0 0 1 0 1 1 0 1 0 0 1 1 2 2 1 2 2 2 1 0 1 2 3 2 2 3 4 6 6 7 8 8 9 10 9 9 9 8 7 7 7 7
0 0 1 0 0 1 1 1 1 1 1 1 1 1 2 2 2 2 2 2 1 1 2 3 3 2 3 3 4 4 5 5 7 8 9 9 8 8 8 8 7 7 7
0 1 1 1 1 2 2 2 1 1 1 1 1 1 2 2 2 2 1 1 1 0 1 3 3 3 3 3 3 3 3 3 4 6 7 8 8 8 8 7 7 6 6
1 2 2 2 2 3 3 3 1 1 1 1 1 2 3 4 4 3 2 2 2 1 1 2 3 3 3 3 3 3 4 4 3 4 4 6 7 6 6 6 6 6 5
2 2 2 3 3 4 6 7 4 2 1 1 1 1 3 4 4 5 5 5 3 1 1 2 2 2 3 2 2 3 3 3 2 3 4 4 6 4 6 7 7 7 7
2 2 2 3 3 4 6 6 5 2 2 3 3 2 2 3 3 2 3 3 4 4 2 1 2 2 2 2 3 3 2 2 2 3 3 2 3 4 6 8 10 9 8
2 2 2 2 3 4 6 6 5 2 2 3 4 4 4 4 6 5 3 4 4 4 3 2 2 1 2 2 2 3 4 3 2 2 3 2 3 2 4 7 10 11 10
2 2 3 3 3 4 5 5 4 1 3 4 4 6 5 5 7 7 3 2 3 2 5 6 5 5 5 4 3 1 2 3 2 2 1 1 2 2 2 4 9 11 11
2 3 3 3 3 3 4 4 4 1 2 3 4 5 8 7 7 7 4 3 2 2 2 3 3 3 3 3 3 2 1 2 1 1 1 1 1 2 2 2 6 10 10
Wind_Direction
136 135 136 159 182 167 165 182 173 133 134 176 175 141 91 103 118 130 143 156 158 162 166 170 173 175 177 179 179 179 182 183 183 181 181 182 183 183 185 188 189 189 187
120 126 152 176 178 148 144 158 156 159 182 194 162 143 144 128 124 132 148 161 169 173 176 180 183 185 186 188 190 191 192 194 194 195 195 196 196 200 203 204 207 205 204
152 163 169 192 160 132 143 173 172 187 191 184 183 187 176 158 155 159 157 165 174 183 186 188 190 191 194 195 197 199 201 203 204 205 205 206 208 211 215 215 217 216 215
175 186 187 184 166 181 191 184 218 201 199 189 187 202 181 170 175 180 180 174 174 181 191 195 196 197 200 202 204 205 208 210 211 212 212 213 215 218 221 223 225 226 225
180 194 206 162 193 196 205 217 176 204 203 200 207 202 203 199 189 195 192 186 182 177 181 195 201 203 205 207 209 210 212 213 214 217 220 221 223 223 223 225 227 227 228
188 203 206 193 222 206 214 222 167 194 238 232 237 209 208 201 199 195 200 193 186 184 186 185 195 208 211 212 213 214 216 217 218 220 223 224 224 225 225 226 227 228 230
191 198 249 178 223 222 210 205 201 210 233 229 229 244 244 219 196 191 203 199 187 187 186 176 183 191 200 213 216 218 220 221 222 222 222 223 225 227 226 228 228 230 231
200 197 202 235 226 217 223 242 232 242 253 231 206 209 257 276 248 221 192 200 198 183 185 182 185 189 190 188 207 214 218 222 224 224 224 226 228 228 229 231 232 232 233
208 221 194 224 232 225 207 225 224 228 247 253 211 192 196 229 259 277 218 192 170 171 169 172 176 179 182 178 187 208 215 221 224 225 226 226 227 228 232 235 234 233 231
211 220 217 217 237 249 209 229 219 228 233 254 250 239 232 225 209 279 312 221 187 180 183 185 167 163 169 167 164 175 198 209 217 223 228 229 232 231 231 233 232 232 230
216 223 219 213 222 241 238 244 228 231 225 233 247 247 245 227 220 216 248 260 257 203 181 149 127 118 139 151 149 154 172 183 190 196 203 207 210 218 220 221 226 230 229
225 231 224 209 212 231 239 238 238 231 236 241 259 265 248 223 221 216 221 217 226 228 115 91 99 100 111 121 130 127 146 156 159 158 159 156 146 143 148 164 192 211 219
240 228 224 212 221 223 224 227 232 232 229 237 242 255 263 249 247 243 226 235 231 214 154 125 131 117 122 118 114 119 130 137 138 134 130 124 117 112 106 103 106 114 155
252 241 189 203 229 223 229 209 222 235 224 232 241 247 272 272 263 247 243 234 240 247 140 154 87 106 110 114 119 121 118 124 125 124 123 119 111 102 94 87 81 73 69
256 306 169 208 232 221 224 214 226 248 219 233 258 261 268 273 268 261 247 226 220 229 231 210 122 100 108 113 121 122 116 122 123 122 120 118 113 106 98 90 82 81 79
6 4 327 291 296 263 198 205 242 222 156 204 277 308 304 305 306 300 286 248 225 217 216 184 151 135 116 114 120 115 111 120 124 123 119 113 108 103 97 91 88 84 79
17 353 347 333 352 30 46 191 234 154 236 21 304 301 310 334 332 318 309 294 266 192 180 166 116 107 113 110 112 114 113 113 115 123 120 114 109 104 97 92 90 88 86
8 73 28 345 338 55 68 50 310 38 56 49 16 11 351 341 339 338 333 301 234 200 167 166 162 140 120 120 123 129 125 121 117 124 125 121 115 108 101 96 93 91 90
80 128 122 97 11 42 41 28 27 46 63 71 56 23 2 5 339 335 327 320 293 234 157 159 170 159 135 137 130 134 129 127 124 126 127 126 122 115 109 104 100 98 96
131 85 69 58 50 47 41 31 64 94 78 62 66 58 29 18 346 315 303 316 298 221 148 144 146 148 148 149 149 154 149 154 154 142 131 135 133 127 120 116 113 111 111
81 72 60 48 42 44 41 36 22 91 81 78 84 85 70 67 53 29 21 7 4 55 122 139 150 149 157 168 182 183 166 161 157 152 149 152 150 146 141 137 133 131 130
73 78 70 66 55 48 41 41 30 47 45 41 63 87 108 87 77 80 75 62 55 75 108 128 141 159 173 178 174 167 163 161 171 165 160 167 161 159 158 160 162 160 155
97 83 78 81 76 55 45 39 34 36 56 54 45 29 43 57 64 72 93 90 68 58 78 144 146 179 178 174 178 179 173 168 162 164 156 175 164 162 159 168 173 176 174
117 105 102 98 88 61 52 38 22 42 75 68 59 51 51 42 26 29 51 72 76 55 50 98 111 120 122 136 192 188 171 159 161 153 148 189 174 169 157 162 180 186 188
128 114 101 102 91 71 48 36 15 51 85 75 64 52 47 52 30 27 42 72 88 97 86 97 101 109 109 106 111 132 151 162 180 174 154 190 180 165 165 175 190 196 198
121 109 101 96 97 92 67 44 17 62 109 105 95 80 59 53 39 27 26 42 62 44 75 110 118 141 144 137 137 155 182 192 156 157 141 162 174 162 184 189 183 193 207
Height
1562 1563 1564 1564 1565 1566 1567 1568 1569 1570 1570 1571 1572 1573 1573 1574 1574 1573 1574 1574 1575 1576 1576 1577 1578 1579 1580 1581 1582 1583 1584 1585 1586 1587 1588 1588 1589 1590 1591 1592 1592 1593 1594
1562 1563 1563 1564 1566 1567 1568 1568 1569 1570 1570 1571 1572 1573 1573 1574 1574 1574 1574 1575 1575 1576 1576 1577 1578 1579 1579 1580 1581 1582 1583 1584 1585 1586 1587 1588 1588 1589 1590 1591 1591 1592 1593
1561 1562 1563 1564 1565 1567 1567 1568 1569 1569 1570 1571 1572 1573 1573 1574 1574 1574 1574 1574 1575 1575 1576 1577 1577 1578 1579 1580 1581 1581 1582 1583 1584 1585 1586 1586 1587 1588 1589 1589 1590 1591 1591
1561 1562 1563 1564 1565 1566 1567 1568 1568 1569 1570 1570 1571 1572 1572 1573 1573 1574 1574 1574 1574 1575 1575 1576 1577 1577 1578 1579 1579 1580 1581 1582 1583 1584 1584 1585 1585 1586 1587 1588 1588 1589 1589
1560 1561 1562 1563 1564 1566 1567 1567 1567 1568 1569 1569 1570 1570 1571 1572 1572 1573 1574 1574 1574 1574 1574 1575 1575 1576 1577 1577 1578 1579 1579 1580 1581 1581 1582 1583 1583 1584 1585 1586 1586 1587 1587
1559 1560 1561 1562 1564 1565 1565 1566 1566 1567 1568 1568 1569 1570 1570 1570 1571 1572 1572 1573 1573 1573 1573 1573 1574 1574 1575 1575 1576 1577 1577 1578 1579 1579 1580 1581 1581 1582 1583 1583 1584 1584 1584
1558 1559 1561 1562 1562 1563 1564 1565 1565 1566 1566 1567 1568 1568 1569 1569 1570 1570 1571 1571 1572 1572 1572 1572 1572 1572 1572 1573 1574 1574 1575 1576 1576 1577 1577 1578 1579 1579 1580 1580 1581 1581 1582
1557 1558 1559 1560 1561 1562 1562 1563 1563 1564 1565 1566 1567 1567 1567 1569 1568 1568 1568 1569 1570 1570 1571 1571 1570 1570 1571 1571 1571 1572 1572 1573 1574 1574 1574 1575 1576 1576 1577 1577 1578 1578 1578
1555 1556 1558 1558 1559 1560 1560 1561 1562 1562 1563 1564 1565 1566 1566 1565 1566 1566 1566 1567 1567 1568 1568 1569 1569 1569 1569 1569 1568 1569 1570 1570 1571 1571 1572 1572 1572 1573 1573 1574 1574 1574 1575
1554 1555 1556 1556 1557 1558 1558 1559 1559 1560 1561 1562 1563 1563 1564 1564 1565 1564 1565 1564 1565 1564 1565 1566 1566 1566 1566 1566 1566 1566 1567 1567 1568 1568 1568 1569 1569 1569 1570 1570 1570 1570 1570
1552 1553 1554 1554 1555 1556 1556 1557 1557 1558 1558 1559 1560 1561 1561 1562 1562 1562 1562 1563 1563 1563 1563 1563 1564 1564 1563 1563 1563 1563 1564 1564 1564 1565 1565 1565 1565 1566 1566 1566 1566 1566 1566
1550 1551 1551 1552 1552 1553 1553 1554 1555 1555 1556 1557 1557 1558 1559 1559 1559 1560 1560 1560 1560 1560 1560 1560 1560 1560 1560 1560 1560 1561 1561 1561 1561 1561 1562 1562 1562 1562 1562 1562 1563 1563 1563
1548 1549 1549 1549 1550 1550 1551 1552 1552 1552 1553 1554 1555 1555 1556 1556 1557 1557 1557 1557 1557 1558 1558 1558 1557 1558 1558 1558 1558 1558 1558 1558 1558 1558 1558 1559 1559 1559 1559 1559 1559 1559 1559
1547 1547 1547 1547 1548 1548 1549 1549 1550 1550 1551 1551 1552 1552 1553 1553 1554 1554 1554 1554 1555 1555 1555 1555 1555 1555 1555 1555 1555 1555 1555 1555 1555 1555 1556 1556 1556 1556 1556 1556 1555 1555 1555
1545 1545 1545 1545 1545 1546 1546 1547 1548 1548 1549 1549 1549 1549 1550 1550 1551 1551 1551 1552 1552 1552 1552 1553 1553 1553 1553 1553 1553 1553 1553 1553 1553 1553 1553 1553 1553 1553 1553 1553 1553 1553 1552
1544 1544 1544 1544 1544 1544 1544 1545 1545 1546 1546 1546 1547 1547 1547 1547 1548 1548 1548 1548 1549 1549 1549 1549 1550 1551 1551 1550 1551 1551 1551 1551 1551 1551 1551 1551 1551 1551 1551 1551 1551 1550 1550
1542 1542 1542 1542 1542 1542 1542 1543 1543 1543 1544 1544 1544 1544 1544 1545 1545 1545 1545 1545 1545 1546 1546 1546 1547 1548 1548 1548 1548 1548 1548 1549 1549 1549 1549 1549 1549 1549 1549 1548 1548 1548 1547
1541 1541 1541 1541 1541 1541 1541 1541 1541 1541 1541 1541 1541 1542 1542 1542 1542 1542 1542 1543 1543 1543 1543 1543 1544 1545 1545 1546 1546 1547 1547 1547 1547 1548 1548 1548 1548 1547 1547 1546 1546 1546 1545
1540 1540 1539 1539 1539 1539 1539 1539 1539 1539 1539 1539 1539 1539 1540 1540 1540 1540 1540 1540 1540 1540 1541 1541 1541 1542 1543 1544 1544 1545 1546 1546 1546 1546 1546 1546 1546 1546 1546 1545 1545 1544 1544
1539 1539 1538 1538 1538 1537 1537 1538 1537 1537 1537 1537 1537 1538 1538 1538 1537 1537 1537 1537 1538 1538 1538 1538 1539 1539 1540 1541 1542 1543 1543 1544 1545 1545 1545 1545 1545 1545 1544 1544 1544 1543 1542
1538 1538 1537 1537 1537 1536 1536 1536 1536 1536 1536 1536 1536 1536 1536 1536 1536 1535 1535 1535 1535 1535 1535 1536 1537 1537 1538 1539 1540 1541 1542 1542 1543 1543 1543 1543 1543 1543 1543 1543 1542 1542 1541
1537 1537 1536 1536 1536 1535 1535 1535 1535 1535 1535 1535 1535 1535 1535 1534 1534 1534 1533 1533 1533 1533 1533 1534 1534 1535 1536 1537 1538 1539 1539 1540 1540 1542 1542 1542 1542 1542 1542 1541 1541 1541 1540
1536 1536 1535 1535 1535 1534 1535 1535 1535 1535 1534 1534 1534 1534 1534 1533 1533 1532 1531 1531 1531 1531 1532 1532 1532 1533 1534 1534 1535 1536 1537 1537 1538 1539 1540 1540 1540 1540 1540 1540 1540 1540 1539
1535 1535 1534 1534 1534 1534 1534 1534 1534 1534 1534 1533 1533 1533 1532 1532 1532 1531 1530 1530 1530 1530 1530 1530 1531 1531 1532 1533 1534 1534 1535 1536 1537 1537 1538 1538 1538 1538 1539 1539 1539 1539 1538
1534 1534 1534 1533 1533 1533 1533 1533 1533 1533 1533 1532 1532 1532 1532 1531 1531 1530 1530 1530 1529 1529 1529 1530 1530 1530 1531 1531 1532 1532 1533 1533 1534 1534 1535 1535 1535 1535 1536 1536 1537 1537 1537
1534 1533 1533 1533 1532 1532 1532 1532 1533 1532 1532 1532 1531 1531 1530 1530 1530 1530 1529 1529 1529 1529 1529 1529 1529 1529 1529 1530 1530 1530 1531 1531 1531 1531 1531 1532 1532 1533 1533 1534 1534 1534 1534